Location: Unspecified
(0.0000°N, 0.0000°E)
Time: 12:49:03
(UTC+00:00)

FENGYUN 1C DEB - Visible Passes

Search period start: 11 February 2026 00:00
Search period end: 21 February 2026 00:00
Orbit: 554 x 1055 km, 98.2° (Epoch: 8 February)

Date Brightness Start Highest point End Pass type
(mag) Time Alt. Az. Time Alt. Az. Time Alt. Az.
11 Feb ? 19:54:09 10° NNW 19:57:24 18° WNW 20:00:25 10° WSW visible
12 Feb ? 19:27:34 10° N 19:32:01 38° WNW 19:36:01 10° SW visible
13 Feb ? 19:01:44 10° N 19:06:30 87° W 19:10:44 10° SSW visible
14 Feb ? 18:36:30 10° NNE 18:40:51 39° E 18:44:45 10° S visible
15 Feb ? 19:51:34 10° NNW 19:54:38 18° WNW 19:57:32 10° WSW visible
16 Feb ? 19:24:46 10° N 19:29:02 39° WNW 19:32:53 10° SW visible
17 Feb ? 18:58:46 10° NNE 19:03:16 86° ESE 19:07:21 10° S visible
18 Feb ? 18:33:22 10° NE 18:37:22 34° E 18:41:04 10° SSE visible
19 Feb ? 19:47:59 10° NNW 19:51:00 18° WNW 19:53:51 10° WSW visible
20 Feb ? 19:21:01 10° N 19:25:07 42° WNW 19:28:55 10° SSW visible
